Wind_Speed
21 22 22 21 21 21 21 21 21 21 21 22 22 21 21 22 22 21 22 22 23 23 23 24 23 24 23 23 23 23 23 23 23 24 25 25 25 26 27 27 27 27 28
20 20 20 19 19 19 20 19 20 20 21 22 21 21 21 21 21 21 21 23 23 22 22 22 22 23 23 23 23 23 23 23 23 23 23 24 25 25 25 25 26 27 28
19 19 18 18 18 18 18 18 18 19 20 21 21 20 20 20 20 21 21 22 22 22 22 22 21 22 22 23 23 22 23 23 23 23 23 23 24 24 24 24 24 25 27
18 18 18 17 17 17 17 17 17 17 18 19 20 20 20 20 20 20 21 21 21 21 21 20 20 21 22 22 22 22 22 22 22 22 22 23 23 23 23 23 24 24 25
17 17 17 16 16 17 17 17 16 16 18 19 19 20 20 20 20 20 20 20 19 19 19 19 19 20 20 21 21 21 21 22 22 22 22 23 23 23 23 23 23 24 23
16 16 16 15 15 15 15 15 15 16 17 18 19 19 19 19 20 20 20 20 19 19 19 19 20 20 21 21 21 21 21 22 22 21 22 22 22 22 23 23 23 22 22
15 15 15 14 15 14 14 14 15 16 17 17 18 19 19 19 20 20 21 20 20 20 20 20 21 21 21 21 20 20 21 21 21 21 22 22 21 21 21 21 21 22 22
14 13 13 14 14 14 14 14 15 16 17 17 18 18 19 19 20 20 20 20 20 20 20 21 21 21 21 20 20 21 21 21 21 21 21 20 20 20 20 20 20 21 22
12 13 13 14 14 13 13 14 14 15 16 17 18 18 18 19 20 20 20 21 20 20 20 20 20 20 20 20 20 20 20 20 21 20 20 20 19 19 18 19 19 19 20
12 12 13 13 12 12 13 12 13 14 16 17 17 18 19 19 19 20 20 20 21 21 21 20 20 20 21 20 20 20 21 20 20 20 19 19 19 19 19 19 20 20 19
11 11 11 11 11 11 12 12 13 15 16 17 17 17 18 19 19 21 21 21 21 21 20 20 20 21 21 21 21 21 21 20 20 19 18 19 19 19 19 20 19 19 19
10 10 10 10 11 11 12 12 14 15 16 16 16 17 18 19 20 20 21 22 22 21 21 21 21 20 20 20 20 20 20 20 19 19 19 19 18 18 18 19 20 19 20
9 10 10 11 11 11 12 13 14 15 16 16 16 17 18 19 20 21 21 22 22 21 21 21 20 20 20 20 20 20 20 20 20 19 19 19 18 19 19 19 19 20 20
10 10 10 11 11 11 12 13 14 15 16 16 16 17 18 19 20 21 21 21 21 21 21 21 21 21 21 21 21 21 21 20 20 20 19 19 19 19 19 19 19 19 19
10 11 11 11 11 12 13 14 15 15 15 16 17 18 19 20 20 21 21 21 21 22 22 21 21 22 22 22 22 21 21 21 20 20 19 19 18 18 18 19 20 20 19
10 11 11 10 11 12 13 14 15 15 16 17 17 18 18 20 21 21 22 22 23 23 24 23 22 23 23 23 22 22 22 21 20 19 18 18 18 18 18 19 19 19 19
8 9 10 10 11 12 13 14 15 16 16 17 17 17 18 20 21 23 23 23 24 24 24 24 23 23 23 23 22 22 21 20 20 19 19 19 19 19 20 20 21 21 21
7 8 9 10 11 12 13 15 15 16 17 17 17 18 19 21 22 23 24 24 24 24 24 24 24 23 23 23 23 22 21 21 20 19 19 19 19 20 20 20 20 20 21
7 8 10 11 12 12 13 14 15 16 17 17 18 19 21 22 23 23 24 24 25 25 25 25 24 24 25 24 24 23 22 21 21 20 20 20 20 20 20 20 20 21 21
8 9 10 11 12 13 14 14 15 16 17 18 19 20 21 22 23 24 25 25 25 25 26 26 25 25 25 25 24 23 22 21 21 21 20 20 21 21 20 20 20 20 20
9 10 11 12 12 13 14 15 16 16 17 18 19 21 22 23 23 24 25 26 27 26 26 26 26 26 26 25 25 24 23 22 22 22 21 21 21 21 22 21 21 21 21
9 10 11 12 13 14 15 16 16 17 18 19 19 21 22 23 24 25 26 27 27 27 27 27 27 26 26 26 26 25 24 24 23 23 23 22 22 22 22 22 22 22 22
10 10 11 12 14 15 15 16 17 18 18 19 20 22 23 24 25 26 27 27 27 26 27 27 27 27 27 27 27 26 25 25 24 24 24 24 23 22 22 22 22 21 21
10 10 11 13 14 15 16 17 18 19 19 20 21 22 24 25 26 26 27 27 27 27 27 27 27 27 27 27 27 26 25 25 25 25 24 23 23 22 21 21 20 20 19
10 11 12 14 15 15 16 17 18 20 21 22 23 23 24 25 26 27 27 28 27 28 28 27 27 27 27 27 27 26 26 26 26 25 24 23 22 22 20 20 20 19 19
11 12 13 14 15 16 17 18 19 20 21 23 24 24 25 26 26 27 28 28 28 28 27 27 27 27 27 27 27 26 26 26 26 25 24 23 22 21 20 20 19 19 18
Wind_Direction
295 296 298 300 301 300 301 302 302 304 305 306 306 306 305 304 301 301 302 303 302 301 299 297 295 293 292 292 290 289 287 286 286 282 280 279 278 276 274 271 269 266 262
297 296 298 300 302 302 301 302 302 304 307 309 307 307 306 306 303 302 303 304 303 302 301 300 298 296 294 293 292 291 289 287 287 283 281 281 279 275 273 274 273 267 265
298 298 299 299 301 303 304 304 305 307 307 311 312 311 310 310 307 305 305 305 305 304 303 302 300 297 296 296 295 292 290 288 287 284 281 280 281 279 276 275 274 271 267
299 301 301 302 303 305 306 308 310 311 311 314 316 316 316 315 313 311 311 310 308 307 306 305 302 300 298 298 297 295 293 291 288 286 282 281 281 279 277 276 275 273 271
301 302 303 303 304 306 307 310 309 313 316 317 316 317 318 317 316 316 315 315 313 310 309 309 307 304 301 299 297 296 294 294 291 288 285 283 283 280 280 279 276 273 271
302 303 305 306 308 310 311 310 312 314 318 320 320 320 320 320 319 319 320 318 314 311 309 308 308 307 304 300 297 297 297 295 294 291 288 286 285 282 283 280 278 274 271
305 306 307 308 311 311 312 311 313 315 318 321 321 322 322 323 321 319 321 319 315 312 310 308 308 307 305 303 300 299 298 297 296 294 288 286 284 283 284 281 278 274 272
307 308 309 310 313 312 312 313 313 316 320 322 322 322 323 325 324 322 323 322 318 315 312 310 310 309 307 306 304 303 302 300 298 296 289 286 285 285 286 284 279 277 274
305 308 310 311 312 313 314 314 315 319 324 326 325 324 324 325 326 326 325 325 322 321 317 314 312 312 310 308 307 307 306 304 302 299 293 290 289 288 285 284 281 278 276
306 309 312 313 315 316 318 319 321 323 326 328 326 324 323 325 326 325 324 324 325 323 321 318 314 312 310 308 307 306 305 305 302 300 296 291 289 287 285 284 282 279 277
308 312 315 317 318 321 324 325 327 329 328 329 328 328 327 328 328 328 327 326 326 325 323 321 317 314 311 309 307 307 307 305 304 299 295 294 294 289 286 285 283 281 278
310 315 319 321 322 325 329 330 330 330 330 329 331 331 330 331 331 331 332 331 328 326 324 323 321 318 315 312 310 310 309 307 303 299 296 294 293 290 287 285 283 284 282
312 317 322 326 328 329 329 330 331 331 331 331 331 331 331 334 334 333 334 332 331 330 328 326 324 324 321 318 315 313 312 309 307 306 301 295 291 288 286 284 283 283 281
311 317 322 326 327 329 330 330 330 332 333 333 330 330 332 333 334 336 336 337 337 336 334 331 329 328 326 323 320 318 316 314 310 307 302 297 294 292 287 282 283 284 282
311 315 318 321 324 327 330 330 331 332 332 333 332 330 332 334 334 337 339 339 339 338 337 334 332 330 328 325 322 318 317 314 312 311 308 302 300 298 292 286 284 284 283
312 315 315 318 324 329 332 333 334 335 335 334 332 332 334 336 337 338 340 338 338 338 338 336 334 332 330 328 325 321 318 315 313 311 310 307 304 301 298 293 290 286 283
315 318 320 321 323 328 331 334 337 338 337 337 337 337 337 338 338 339 339 338 337 337 338 337 336 334 334 332 329 325 321 318 314 311 309 307 305 302 299 295 291 289 285
320 322 324 327 329 333 335 336 338 340 341 341 341 340 340 338 339 340 340 338 338 337 337 336 336 336 336 334 332 329 326 323 319 315 313 310 307 304 300 297 293 291 290
328 328 329 331 333 336 337 339 340 341 342 341 340 339 339 339 340 341 340 339 340 339 338 338 338 338 336 335 333 329 327 324 321 317 314 312 310 307 302 299 296 294 292
335 334 334 334 335 336 337 340 342 342 341 340 340 340 339 340 340 340 340 340 341 342 342 342 341 340 338 337 335 332 329 327 324 321 318 316 313 309 305 302 298 296 294
337 335 334 334 335 336 338 339 341 341 339 339 341 342 341 341 341 341 341 341 341 341 341 341 341 340 339 338 338 337 333 329 326 322 319 318 315 312 308 304 301 296 293
333 333 334 336 337 337 338 339 339 341 341 342 342 341 340 340 341 341 341 342 342 340 339 340 341 341 340 339 337 335 334 332 329 325 321 318 316 314 310 307 303 299 295
332 333 335 335 335 337 338 340 341 340 341 341 341 340 339 340 341 342 342 342 341 339 338 340 340 340 340 339 339 338 336 335 332 328 323 320 318 317 315 311 307 302 297
332 333 334 334 335 337 338 339 341 342 340 340 341 341 340 340 341 341 341 341 340 340 339 339 340 340 340 339 339 339 337 336 334 331 329 326 324 322 318 316 312 307 302
331 333 334 335 336 336 337 338 341 343 342 341 341 342 341 341 341 341 341 340 340 340 341 341 342 342 341 341 341 341 340 339 337 336 334 332 329 327 324 321 319 314 311
328 331 334 335 336 335 336 338 340 342 343 343 342 342 341 342 342 341 341 341 341 341 342 343 343 343 343 343 342 342 341 341 340 338 337 335 333 331 329 327 324 321 317
Height
5782 5780 5778 5776 5773 5771 5768 5766 5763 5760 5758 5755 5752 5749 5746 5744 5741 5738 5736 5733 5730 5726 5723 5721 5718 5716 5713 5711 5709 5706 5704 5702 5701 5699 5698 5696 5695 5694 5693 5692 5691 5691 5691
5778 5775 5773 5771 5769 5766 5764 5761 5759 5756 5753 5750 5747 5744 5742 5739 5736 5733 5731 5728 5724 5721 5718 5715 5712 5710 5707 5705 5702 5700 5698 5696 5694 5693 5691 5690 5688 5687 5686 5685 5684 5683 5683
5773 5771 5769 5767 5764 5762 5759 5757 5754 5751 5749 5746 5743 5740 5737 5734 5731 5728 5725 5722 5719 5715 5712 5709 5706 5704 5701 5699 5696 5694 5692 5690 5688 5686 5684 5683 5682 5680 5679 5678 5677 5676 5676
5768 5766 5764 5762 5760 5757 5755 5753 5750 5747 5745 5742 5739 5735 5732 5729 5727 5723 5720 5716 5713 5709 5706 5703 5701 5698 5696 5693 5690 5688 5686 5684 5681 5680 5678 5676 5675 5673 5672 5671 5670 5669 5668
5764 5762 5760 5758 5756 5753 5750 5748 5746 5743 5741 5738 5735 5732 5728 5725 5722 5719 5715 5712 5708 5704 5701 5698 5696 5693 5690 5687 5685 5682 5680 5677 5675 5673 5672 5670 5668 5666 5665 5664 5663 5662 5661
5760 5758 5756 5754 5752 5749 5747 5745 5742 5740 5737 5735 5732 5728 5725 5721 5718 5714 5711 5707 5704 5700 5697 5694 5691 5688 5685 5682 5679 5677 5674 5672 5669 5667 5665 5663 5662 5660 5658 5657 5656 5655 5655
5756 5754 5752 5750 5748 5746 5743 5742 5739 5737 5734 5731 5728 5725 5721 5718 5714 5711 5707 5703 5699 5696 5693 5690 5687 5683 5680 5677 5674 5671 5669 5666 5663 5661 5659 5657 5655 5654 5652 5651 5649 5648 5648
5753 5751 5749 5747 5745 5743 5740 5738 5736 5734 5731 5728 5725 5721 5718 5714 5711 5707 5703 5699 5695 5691 5688 5685 5682 5679 5675 5672 5669 5666 5663 5660 5658 5655 5653 5651 5649 5648 5646 5644 5643 5642 5641
5749 5748 5746 5744 5742 5740 5738 5735 5733 5731 5728 5725 5721 5718 5715 5711 5707 5703 5699 5695 5691 5687 5684 5681 5677 5674 5671 5668 5664 5661 5658 5655 5652 5649 5647 5645 5643 5642 5640 5639 5637 5636 5636
5746 5745 5743 5741 5739 5737 5734 5732 5730 5728 5725 5722 5718 5715 5712 5708 5704 5700 5696 5692 5688 5684 5680 5676 5673 5670 5666 5662 5659 5656 5653 5650 5647 5644 5642 5640 5638 5636 5634 5633 5631 5630 5630
5743 5742 5740 5738 5736 5734 5732 5729 5727 5725 5722 5719 5715 5712 5708 5705 5701 5697 5693 5688 5684 5680 5676 5672 5668 5664 5661 5657 5654 5650 5647 5644 5641 5639 5636 5634 5632 5630 5628 5627 5626 5625 5624
5741 5739 5738 5736 5733 5731 5729 5727 5725 5722 5720 5716 5713 5709 5706 5702 5698 5694 5689 5685 5680 5676 5672 5668 5663 5659 5655 5651 5648 5645 5642 5639 5636 5633 5630 5628 5626 5624 5622 5621 5620 5619 5618
5738 5737 5736 5734 5732 5729 5727 5725 5723 5720 5717 5713 5710 5706 5703 5699 5695 5691 5686 5681 5676 5672 5667 5663 5658 5654 5650 5647 5643 5639 5636 5633 5630 5627 5625 5622 5620 5618 5616 5615 5614 5612 5611
5736 5735 5733 5731 5729 5727 5725 5723 5720 5717 5714 5711 5707 5704 5700 5696 5692 5687 5683 5678 5673 5668 5664 5659 5655 5650 5646 5642 5638 5634 5630 5627 5624 5622 5619 5617 5614 5612 5610 5609 5607 5606 5605
5734 5732 5731 5729 5727 5725 5723 5720 5717 5714 5711 5708 5704 5701 5697 5693 5688 5684 5679 5674 5669 5664 5660 5655 5650 5646 5642 5637 5633 5629 5626 5622 5619 5616 5613 5611 5608 5606 5604 5602 5601 5600 5599
5731 5730 5728 5726 5724 5722 5720 5718 5714 5711 5708 5705 5701 5697 5694 5690 5685 5680 5676 5671 5666 5661 5656 5651 5646 5641 5637 5633 5628 5624 5620 5616 5613 5610 5608 5605 5603 5601 5599 5597 5595 5594 5592
5729 5727 5725 5724 5722 5720 5718 5715 5712 5709 5706 5702 5698 5694 5690 5686 5682 5677 5672 5668 5663 5657 5652 5647 5642 5638 5633 5628 5623 5619 5615 5611 5608 5605 5602 5600 5597 5595 5593 5590 5589 5587 5586
5727 5725 5723 5722 5720 5718 5716 5713 5710 5707 5703 5700 5696 5692 5688 5683 5679 5674 5669 5664 5659 5654 5649 5643 5639 5634 5629 5624 5619 5614 5610 5606 5603 5600 5597 5594 5591 5589 5586 5584 5582 5580 5578
5725 5723 5721 5720 5718 5716 5713 5710 5707 5704 5700 5697 5693 5689 5685 5681 5676 5671 5666 5661 5656 5651 5645 5640 5635 5630 5625 5619 5615 5610 5605 5601 5598 5594 5591 5588 5585 5582 5579 5577 5575 5573 5571
5723 5721 5720 5718 5716 5713 5711 5708 5705 5701 5698 5694 5691 5687 5682 5678 5673 5668 5663 5658 5652 5647 5642 5636 5631 5626 5620 5615 5610 5605 5600 5596 5592 5589 5585 5582 5579 5576 5573 5570 5568 5566 5564
5721 5719 5718 5715 5713 5711 5708 5705 5702 5699 5695 5691 5688 5683 5679 5674 5670 5665 5660 5655 5649 5644 5639 5633 5628 5622 5616 5611 5606 5601 5596 5592 5588 5584 5580 5577 5573 5570 5567 5564 5561 5559 5557
5719 5717 5715 5713 5711 5708 5706 5703 5699 5696 5692 5688 5685 5681 5676 5672 5667 5661 5656 5651 5646 5640 5635 5629 5624 5618 5613 5607 5602 5596 5592 5587 5583 5578 5574 5571 5567 5564 5560 5557 5554 5552 5550
5717 5716 5713 5711 5708 5706 5703 5700 5697 5693 5689 5686 5682 5678 5673 5668 5663 5658 5653 5648 5642 5637 5631 5626 5620 5614 5608 5603 5597 5592 5587 5582 5578 5573 5569 5565 5561 5558 5554 5551 5548 5545 5543
5715 5713 5711 5709 5706 5703 5700 5697 5694 5691 5687 5683 5679 5674 5670 5665 5660 5654 5649 5644 5638 5633 5627 5622 5616 5611 5605 5599 5593 5588 5583 5578 5573 5568 5563 5559 5555 5552 5548 5545 5542 5539 5536
5713 5711 5709 5707 5704 5701 5698 5695 5692 5688 5684 5680 5676 5671 5666 5661 5656 5651 5645 5640 5635 5629 5624 5618 5612 5607 5601 5595 5590 5584 5579 5574 5568 5563 5559 5554 5550 5546 5543 5539 5536 5533 5530
5711 5709 5707 5704 5701 5699 5696 5692 5689 5685 5681 5677 5673 5668 5663 5658 5652 5647 5642 5636 5631 5625 5620 5614 5608 5603 5597 5592 5586 5581 5575 5570 5565 5559 5554 5550 5546 5542 5538 5534 5531 5528 5525